Вернуться в каталог

STARLINK-4791

АктивенСвязьVLEO
NORAD 53936·PAYLOAD·🇺🇸 United States

Запущен Sep 24, 2022 с Cape Canaveral Space Force Station

Loading…

Ближайшие Пролёты (ближайшие 24 часа)

TLE

СвежийSource: CelesTrak SupGP

Эпоха: Sep 15, 2026, 02:06 UTC

1 53936C 22119BC  26258.08798611  .00027638  00000+0  88888-3 0  2580
2 53936  53.1572 154.9716 0001355  86.8532  50.5658 15.31683321    13

Отслеживайте STARLINK-4791 в реальном времени с AllMySat

Download on the App Store